Orbital Elements at Epoch 2459200.5 (2020-Dec-17.0) TDB
Reference: JPL 19 (heliocentric ecliptic J2000)
Element | Value | Uncertainty (1-sigma) | Units |
e | .1563481546701136 | 5.759e-08 | |
a | 3.94057980325025 | 5.9149e-08 | au |
q | 3.324477422681754 | 2.2681e-07 | au |
i | 1.779286448034448 | 4.6357e-06 | deg |
node | 248.3970022916152 | 0.00023454 | deg |
peri | 239.283382802354 | 0.00023535 | deg |
M | 248.7594098063204 | 2.4988e-05 | deg |
tp | 2460083.375369752039 (2023-May-18.87536975) | 0.00021326 | TDB |
period | 2857.186684800532 7.82 | 6.4331e-05 1.761e-07 | d yr |
n | .1259980672299446 | 2.8369e-09 | deg/d |
Q | 4.556682183818746 | 6.8397e-08 | au |
|
| | Orbit Determination Parameters
Additional Information
|